MGBUS KPBI-CYYT

Flight info

Callsign MGBUS
Flight time 4h 18m
Altitude 45000
Route SLIDZ3 LENDS DCT PELCN Y309 FLRDA DCT SAGGY DCT CHIEZ Q161 KALDA Q108 BYSEL Q439 RIFLE Q167 BUZRD DCT TUSKY N145C ACADN DCT TIGOR TIGOR5
Aircraft C700/M-SBDGHM1RWXY/LB2

Departure

Time 2026-04-23 14:43
Airport Palm Beach International Airport (KPBI)

Arrival

Time 2026-04-23 19:02
Airport St. John's International Airport (CYYT)
Time Latitude Longitude Altitude Speed Heading
2026-04-23 14:24 26.67953 -80.09462 16 ft 0 kts 90°
2026-04-23 14:27 26.67953 -80.09463 16 ft 0 kts 90°
2026-04-23 14:36 26.67954 -80.09461 16 ft 1 kts 83°
2026-04-23 14:36 26.67965 -80.09422 17 ft 10 kts 70°
2026-04-23 14:36 26.67990 -80.09345 17 ft 1 kts 63°
2026-04-23 14:36 26.68000 -80.09337 17 ft 7 kts 31°
2026-04-23 14:37 26.68056 -80.09371 16 ft 11 kts 305°
2026-04-23 14:37 26.68108 -80.09438 16 ft 12 kts 316°
2026-04-23 14:37 26.68177 -80.09513 17 ft 15 kts 315°
2026-04-23 14:37 26.68257 -80.09603 17 ft 18 kts 315°
2026-04-23 14:38 26.68348 -80.09703 16 ft 14 kts 316°
2026-04-23 14:38 26.68412 -80.09767 16 ft 11 kts 339°
2026-04-23 14:38 26.68484 -80.09801 16 ft 13 kts 315°
2026-04-23 14:38 26.68555 -80.09880 16 ft 16 kts 315°
2026-04-23 14:39 26.68638 -80.09971 16 ft 18 kts 315°
2026-04-23 14:39 26.68734 -80.10077 17 ft 20 kts 315°
2026-04-23 14:39 26.68838 -80.10193 16 ft 21 kts 316°
2026-04-23 14:39 26.68922 -80.10285 16 ft 16 kts 315°
2026-04-23 14:40 26.69007 -80.10380 17 ft 17 kts 315°
2026-04-23 14:40 26.69078 -80.10458 16 ft 8 kts 316°
2026-04-23 14:40 26.69088 -80.10467 16 ft 0 kts 325°
2026-04-23 14:40 26.69106 -80.10468 16 ft 6 kts 12°
2026-04-23 14:41 26.69130 -80.10449 16 ft 6 kts 43°
2026-04-23 14:41 26.69161 -80.10412 16 ft 6 kts 60°
2026-04-23 14:41 26.69149 -80.10363 18 ft 8 kts 133°
2026-04-23 14:41 26.68977 -80.10172 17 ft 78 kts 135°
2026-04-23 14:42 26.68382 -80.09514 97 ft 153 kts 133°
2026-04-23 14:42 26.68260 -80.09380 184 ft 158 kts 134°
2026-04-23 14:43 26.67628 -80.08701 915 ft 142 kts 134°
2026-04-23 14:43 26.66888 -80.07905 1431 ft 163 kts 133°
2026-04-23 14:44 26.65980 -80.06919 2034 ft 191 kts 134°
2026-04-23 14:44 26.65028 -80.05877 2552 ft 195 kts 133°
2026-04-23 14:44 26.64006 -80.04748 3097 ft 221 kts 133°
2026-04-23 14:44 26.63000 -80.03332 3607 ft 246 kts 112°
2026-04-23 14:45 26.62880 -80.01437 4131 ft 251 kts 79°
2026-04-23 14:45 26.63620 -79.99859 4575 ft 257 kts 49°
2026-04-23 14:45 26.64628 -79.98797 4977 ft 261 kts 43°
2026-04-23 14:45 26.66020 -79.97441 5451 ft 267 kts 45°
2026-04-23 14:46 26.67403 -79.96067 5952 ft 267 kts 44°
2026-04-23 14:46 26.68787 -79.94686 6452 ft 271 kts 44°
2026-04-23 14:46 26.70192 -79.93270 6948 ft 273 kts 43°
2026-04-23 14:46 26.71612 -79.91827 7432 ft 278 kts 43°
2026-04-23 14:47 26.73051 -79.90378 7910 ft 279 kts 42°
2026-04-23 14:47 26.74500 -79.88926 8396 ft 280 kts 41°
2026-04-23 14:47 26.75957 -79.87454 8892 ft 284 kts 41°
2026-04-23 14:47 26.77422 -79.85970 9377 ft 286 kts 41°
2026-04-23 14:48 26.78913 -79.84462 9939 ft 290 kts 39°
2026-04-23 14:48 26.80440 -79.82923 10421 ft 308 kts 39°
2026-04-23 14:48 26.82079 -79.81279 10977 ft 319 kts 40°
2026-04-23 14:48 26.83732 -79.79596 11578 ft 323 kts 41°
2026-04-23 14:49 26.85411 -79.77893 12178 ft 327 kts 40°
2026-04-23 14:49 26.87166 -79.76125 12827 ft 333 kts 40°
2026-04-23 14:49 26.88894 -79.74375 13440 ft 336 kts 39°
2026-04-23 14:49 26.90637 -79.72604 14062 ft 340 kts 40°
2026-04-23 14:50 26.92399 -79.70817 14623 ft 344 kts 40°
2026-04-23 14:50 26.94143 -79.68954 15202 ft 348 kts 40°
2026-04-23 14:50 26.95924 -79.67095 15799 ft 352 kts 40°
2026-04-23 14:50 26.97728 -79.65218 16418 ft 356 kts 40°
2026-04-23 14:51 26.99524 -79.63319 17037 ft 361 kts 40°
2026-04-23 14:51 27.01366 -79.61367 17697 ft 366 kts 40°
2026-04-23 14:51 27.03234 -79.59395 18370 ft 371 kts 39°
2026-04-23 14:51 27.05128 -79.57400 18968 ft 376 kts 39°
2026-04-23 14:52 27.07043 -79.55376 19581 ft 379 kts 39°
2026-04-23 14:52 27.08970 -79.53337 20226 ft 382 kts 39°
2026-04-23 14:52 27.10916 -79.51279 20867 ft 385 kts 39°
2026-04-23 14:52 27.12882 -79.49200 21532 ft 390 kts 39°
2026-04-23 14:53 27.14844 -79.47124 22213 ft 395 kts 39°
2026-04-23 14:53 27.16852 -79.44997 22918 ft 399 kts 39°
2026-04-23 14:53 27.18886 -79.42842 23656 ft 405 kts 39°
2026-04-23 14:53 27.20951 -79.40653 24301 ft 411 kts 39°
2026-04-23 14:54 27.23047 -79.38430 24953 ft 417 kts 39°
2026-04-23 14:54 27.25168 -79.36178 25626 ft 420 kts 39°
2026-04-23 14:54 27.27295 -79.33916 26303 ft 422 kts 39°
2026-04-23 14:54 27.29451 -79.31628 27014 ft 428 kts 39°
2026-04-23 14:55 27.31630 -79.29312 27747 ft 433 kts 39°
2026-04-23 14:55 27.33829 -79.26971 28502 ft 437 kts 39°
2026-04-23 14:55 27.36053 -79.24604 29280 ft 441 kts 39°
2026-04-23 14:55 27.38261 -79.22252 30067 ft 445 kts 39°
2026-04-23 14:56 27.40519 -79.19846 30778 ft 447 kts 39°
2026-04-23 14:56 27.42777 -79.17438 31467 ft 449 kts 39°
2026-04-23 14:56 27.45046 -79.15017 32159 ft 450 kts 39°
2026-04-23 14:56 27.47320 -79.12589 32853 ft 451 kts 39°
2026-04-23 14:57 27.49598 -79.10156 33549 ft 452 kts 39°
2026-04-23 14:57 27.51878 -79.07719 34233 ft 451 kts 39°
2026-04-23 14:57 27.54162 -79.05275 34828 ft 451 kts 39°
2026-04-23 14:57 27.56432 -79.02846 35416 ft 450 kts 39°
2026-04-23 14:58 27.58672 -79.00448 35994 ft 449 kts 38°
2026-04-23 14:58 27.60931 -78.98027 36571 ft 447 kts 38°
2026-04-23 14:58 27.63187 -78.95620 37176 ft 443 kts 37°
2026-04-23 14:58 27.65613 -78.93530 37745 ft 434 kts 27°
2026-04-23 14:59 27.68231 -78.91933 38309 ft 424 kts 18°
2026-04-23 14:59 27.70972 -78.90823 38858 ft 413 kts
2026-04-23 14:59 27.73759 -78.90197 39281 ft 403 kts
2026-04-23 14:59 27.76533 -78.89820 39691 ft 399 kts
2026-04-23 15:00 27.78350 -78.89564 39947 ft 398 kts
2026-04-23 15:00 27.81090 -78.89171 40318 ft 395 kts
2026-04-23 15:00 27.83816 -78.88787 40668 ft 393 kts
2026-04-23 15:00 27.86522 -78.88410 40999 ft 391 kts
2026-04-23 15:01 27.90092 -78.87909 41410 ft 389 kts
2026-04-23 15:01 27.92781 -78.87530 41721 ft 388 kts
2026-04-23 15:01 27.94594 -78.87274 41910 ft 388 kts
2026-04-23 15:01 27.97236 -78.86902 42177 ft 387 kts
2026-04-23 15:02 27.99905 -78.86527 42434 ft 386 kts
2026-04-23 15:02 28.02575 -78.86151 42673 ft 386 kts
2026-04-23 15:02 28.05244 -78.85774 42905 ft 386 kts
2026-04-23 15:02 28.07910 -78.85398 43125 ft 386 kts
2026-04-23 15:03 28.10568 -78.85023 43334 ft 386 kts 360°
2026-04-23 15:03 28.13232 -78.84647 43536 ft 386 kts 360°
2026-04-23 15:03 28.15900 -78.84270 43727 ft 386 kts 360°
2026-04-23 15:03 28.18568 -78.83893 43911 ft 386 kts 360°
2026-04-23 15:04 28.21234 -78.83516 44123 ft 387 kts
2026-04-23 15:04 28.23908 -78.83137 44291 ft 387 kts
2026-04-23 15:04 28.26587 -78.82758 44457 ft 387 kts
2026-04-23 15:04 28.29259 -78.82379 44616 ft 388 kts
2026-04-23 15:05 28.31934 -78.82000 44767 ft 388 kts
2026-04-23 15:05 28.34627 -78.81618 44905 ft 389 kts
2026-04-23 15:05 28.37312 -78.81237 45022 ft 389 kts
2026-04-23 15:05 28.39971 -78.80860 45138 ft 390 kts
2026-04-23 15:06 28.45390 -78.80092 45190 ft 396 kts
2026-04-23 15:06 28.50917 -78.79305 45202 ft 404 kts
2026-04-23 15:07 28.56549 -78.78503 45197 ft 411 kts
2026-04-23 15:07 28.62278 -78.77686 45199 ft 418 kts
2026-04-23 15:08 28.68075 -78.76859 45200 ft 425 kts
2026-04-23 15:09 28.76988 -78.75586 45200 ft 435 kts
2026-04-23 15:09 28.83011 -78.74724 45202 ft 441 kts
2026-04-23 15:10 28.89148 -78.73845 45205 ft 447 kts
2026-04-23 15:10 28.95370 -78.72952 45203 ft 452 kts
2026-04-23 15:11 29.01621 -78.72054 45201 ft 458 kts
2026-04-23 15:11 29.07976 -78.71141 45198 ft 463 kts
2026-04-23 15:12 29.14422 -78.70212 45204 ft 468 kts
2026-04-23 15:12 29.20914 -78.69277 45205 ft 472 kts
2026-04-23 15:13 29.27420 -78.68341 45200 ft 476 kts
2026-04-23 15:13 29.34044 -78.67378 45198 ft 480 kts
2026-04-23 15:14 29.40617 -78.65564 45207 ft 491 kts 12°
2026-04-23 15:14 29.47125 -78.63213 45203 ft 493 kts 12°
2026-04-23 15:15 29.53656 -78.60858 45202 ft 491 kts 12°
2026-04-23 15:15 29.60187 -78.58494 45200 ft 490 kts 12°
2026-04-23 15:16 29.66683 -78.56144 45198 ft 488 kts 13°
2026-04-23 15:16 29.73121 -78.53808 45193 ft 485 kts 12°
2026-04-23 15:17 29.79557 -78.51474 45191 ft 486 kts 12°
2026-04-23 15:17 29.86025 -78.49122 45196 ft 488 kts 13°
2026-04-23 15:18 29.92514 -78.46760 45203 ft 488 kts 13°
2026-04-23 15:18 29.98920 -78.44421 45196 ft 478 kts 13°
2026-04-23 15:19 30.05238 -78.42120 45195 ft 480 kts 13°
2026-04-23 15:19 30.11636 -78.39781 45196 ft 483 kts 12°
2026-04-23 15:20 30.18183 -78.38397 45208 ft 478 kts
2026-04-23 15:20 30.24800 -78.37405 45206 ft 479 kts
2026-04-23 15:21 30.31401 -78.36415 45204 ft 475 kts
2026-04-23 15:21 30.37885 -78.35444 45198 ft 470 kts
2026-04-23 15:22 30.44359 -78.34280 45209 ft 474 kts
2026-04-23 15:22 30.50832 -78.32759 45207 ft 476 kts
2026-04-23 15:23 30.57354 -78.31246 45206 ft 479 kts
2026-04-23 15:23 30.63905 -78.29709 45201 ft 481 kts
2026-04-23 15:24 30.70454 -78.28179 45202 ft 479 kts
2026-04-23 15:24 30.76985 -78.26647 45197 ft 476 kts
2026-04-23 15:25 30.83392 -78.24997 45191 ft 470 kts
2026-04-23 15:25 30.89798 -78.23634 45187 ft 467 kts
2026-04-23 15:26 30.96212 -78.22146 45191 ft 471 kts
2026-04-23 15:26 31.02667 -78.20740 45200 ft 473 kts
2026-04-23 15:27 31.09152 -78.19289 45199 ft 474 kts
2026-04-23 15:27 31.15618 -78.17849 45195 ft 471 kts
2026-04-23 15:28 31.22045 -78.16419 45191 ft 468 kts
2026-04-23 15:28 31.28410 -78.14997 45196 ft 469 kts
2026-04-23 15:29 31.34855 -78.13558 45196 ft 472 kts
2026-04-23 15:29 31.41344 -78.12104 45197 ft 475 kts
2026-04-23 15:30 31.47848 -78.10911 45197 ft 471 kts
2026-04-23 15:30 31.54319 -78.09813 45183 ft 469 kts
2026-04-23 15:31 31.60729 -78.08711 45184 ft 467 kts
2026-04-23 15:31 31.67151 -78.07616 45177 ft 465 kts
2026-04-23 15:32 31.73581 -78.06512 45177 ft 468 kts
2026-04-23 15:32 31.80008 -78.05409 45184 ft 470 kts
2026-04-23 15:33 31.86479 -78.04295 45184 ft 468 kts
2026-04-23 15:33 31.92905 -78.03189 45180 ft 466 kts
2026-04-23 15:34 31.99305 -78.02086 45170 ft 464 kts
2026-04-23 15:34 32.05709 -78.00981 45192 ft 466 kts
2026-04-23 15:35 32.12112 -77.99873 45184 ft 469 kts
2026-04-23 15:35 32.18579 -77.98753 45181 ft 468 kts
2026-04-23 15:36 32.25008 -77.97638 45176 ft 465 kts
2026-04-23 15:36 32.31391 -77.96530 45188 ft 463 kts
2026-04-23 15:37 32.37797 -77.95416 45179 ft 466 kts
2026-04-23 15:37 32.43142 -77.94486 45183 ft 468 kts
2026-04-23 15:38 32.50658 -77.93175 45180 ft 469 kts
2026-04-23 15:38 32.57100 -77.92049 45175 ft 467 kts
2026-04-23 15:39 32.63514 -77.90928 45165 ft 465 kts
2026-04-23 15:39 32.69905 -77.89808 45159 ft 463 kts
2026-04-23 15:40 32.76312 -77.88685 45162 ft 466 kts
2026-04-23 15:40 32.82748 -77.87555 45169 ft 469 kts
2026-04-23 15:41 32.89221 -77.86415 45173 ft 470 kts
2026-04-23 15:41 32.95673 -77.85278 45171 ft 467 kts
2026-04-23 15:42 33.02050 -77.84153 45167 ft 465 kts
2026-04-23 15:42 33.08445 -77.83023 45169 ft 464 kts
2026-04-23 15:43 33.14849 -77.81890 45165 ft 466 kts
2026-04-23 15:43 33.21278 -77.80751 45160 ft 467 kts
2026-04-23 15:44 33.27715 -77.79608 45161 ft 468 kts
2026-04-23 15:44 33.34153 -77.78464 45155 ft 467 kts
2026-04-23 15:45 33.40531 -77.77327 45149 ft 464 kts
2026-04-23 15:45 33.46894 -77.76193 45139 ft 460 kts
2026-04-23 15:46 33.53245 -77.75061 45138 ft 463 kts
2026-04-23 15:46 33.58568 -77.74109 45139 ft 465 kts
2026-04-23 15:47 33.64979 -77.72960 45146 ft 465 kts
2026-04-23 15:47 33.71341 -77.71711 45134 ft 461 kts
2026-04-23 15:48 33.77647 -77.70338 45130 ft 461 kts
2026-04-23 15:48 33.83980 -77.68962 45128 ft 464 kts
2026-04-23 15:49 33.90314 -77.67578 45135 ft 465 kts
2026-04-23 15:49 33.96701 -77.66183 45132 ft 463 kts
2026-04-23 15:50 34.02984 -77.64808 45117 ft 460 kts
2026-04-23 15:50 34.09288 -77.63427 45121 ft 460 kts
2026-04-23 15:51 34.15610 -77.62040 45121 ft 462 kts
2026-04-23 15:51 34.21967 -77.60642 45119 ft 465 kts
2026-04-23 15:52 34.28340 -77.59239 45139 ft 465 kts
2026-04-23 15:52 34.34693 -77.57837 45105 ft 462 kts
2026-04-23 15:53 34.41010 -77.56444 45110 ft 462 kts
2026-04-23 15:53 34.47312 -77.55050 45117 ft 463 kts
2026-04-23 15:54 34.53583 -77.52966 45117 ft 472 kts 19°
2026-04-23 15:54 34.59520 -77.49448 45126 ft 476 kts 22°
2026-04-23 15:55 34.65439 -77.45920 45123 ft 476 kts 22°
2026-04-23 15:55 34.71364 -77.42359 45124 ft 474 kts 22°
2026-04-23 15:56 34.77274 -77.38815 45121 ft 472 kts 22°
2026-04-23 15:56 34.83153 -77.35277 45110 ft 471 kts 22°
2026-04-23 15:57 34.88992 -77.31761 45119 ft 469 kts 22°
2026-04-23 15:57 34.94802 -77.28255 45110 ft 465 kts 22°
2026-04-23 15:58 35.00619 -77.24743 45113 ft 467 kts 22°
2026-04-23 15:58 35.06461 -77.21206 45118 ft 470 kts 22°
2026-04-23 15:59 35.12317 -77.17654 45122 ft 465 kts 22°
2026-04-23 15:59 35.18067 -77.14164 45087 ft 460 kts 22°
2026-04-23 16:00 35.23820 -77.10668 45090 ft 463 kts 22°
2026-04-23 16:00 35.29597 -77.07147 45091 ft 465 kts 22°
2026-04-23 16:01 35.35373 -77.03624 45097 ft 467 kts 22°
2026-04-23 16:01 35.41183 -77.00072 45097 ft 465 kts 22°
2026-04-23 16:02 35.46962 -76.96536 45094 ft 463 kts 22°
2026-04-23 16:02 35.52710 -76.93011 45095 ft 461 kts 22°
2026-04-23 16:03 35.58451 -76.89487 45106 ft 461 kts 22°
2026-04-23 16:03 35.64196 -76.86002 45090 ft 460 kts 21°
2026-04-23 16:04 35.69771 -76.82615 45083 ft 459 kts 22°
2026-04-23 16:04 35.75497 -76.79123 45082 ft 459 kts 21°
2026-04-23 16:05 35.80258 -76.76223 45088 ft 459 kts 21°
2026-04-23 16:05 35.86972 -76.72119 45085 ft 462 kts 22°
2026-04-23 16:06 35.92710 -76.68489 45087 ft 465 kts 24°
2026-04-23 16:06 35.98367 -76.64664 45092 ft 467 kts 24°
2026-04-23 16:07 36.04092 -76.60813 45085 ft 469 kts 24°
2026-04-23 16:07 36.09839 -76.56923 45087 ft 471 kts 24°
2026-04-23 16:08 36.15579 -76.53040 45086 ft 469 kts 24°
2026-04-23 16:08 36.21284 -76.49171 45077 ft 467 kts 24°
2026-04-23 16:09 36.26965 -76.45316 45071 ft 470 kts 24°
2026-04-23 16:09 36.32713 -76.41405 45073 ft 472 kts 24°
2026-04-23 16:10 36.38486 -76.37471 45072 ft 473 kts 24°
2026-04-23 16:10 36.44244 -76.33540 45071 ft 470 kts 24°
2026-04-23 16:11 36.49951 -76.29637 45066 ft 465 kts 24°
2026-04-23 16:11 36.55605 -76.25766 45062 ft 463 kts 24°
2026-04-23 16:12 36.61231 -76.21908 45074 ft 466 kts 24°
2026-04-23 16:12 36.66928 -76.17992 45090 ft 468 kts 24°
2026-04-23 16:13 36.72598 -76.14085 45082 ft 460 kts 24°
2026-04-23 16:13 36.80981 -76.08308 45049 ft 460 kts 24°
2026-04-23 16:14 36.86594 -76.04425 45054 ft 463 kts 24°
2026-04-23 16:14 36.92242 -76.00515 45066 ft 462 kts 24°
2026-04-23 16:15 36.97793 -75.96661 45058 ft 456 kts 24°
2026-04-23 16:15 37.03346 -75.92808 45056 ft 457 kts 24°
2026-04-23 16:16 37.08984 -75.89121 45057 ft 454 kts 17°
2026-04-23 16:16 37.15002 -75.86844 45067 ft 451 kts 10°
2026-04-23 16:17 37.21044 -75.84735 45059 ft 450 kts 11°
2026-04-23 16:17 37.27069 -75.82651 45054 ft 448 kts 10°
2026-04-23 16:18 37.33072 -75.80562 45062 ft 447 kts 10°
2026-04-23 16:18 37.39048 -75.78481 45055 ft 445 kts 10°
2026-04-23 16:19 37.45010 -75.76403 45055 ft 444 kts 10°
2026-04-23 16:19 37.50979 -75.74319 45061 ft 445 kts 10°
2026-04-23 16:20 37.56959 -75.72225 45068 ft 446 kts 10°
2026-04-23 16:20 37.62913 -75.70139 45069 ft 447 kts 10°
2026-04-23 16:21 37.68915 -75.68031 45071 ft 448 kts 10°
2026-04-23 16:21 37.74946 -75.65910 45068 ft 449 kts 10°
2026-04-23 16:22 37.80972 -75.63776 45054 ft 450 kts 11°
2026-04-23 16:22 37.86700 -75.60449 45049 ft 458 kts 26°
2026-04-23 16:23 37.91936 -75.55912 45057 ft 458 kts 28°
2026-04-23 16:23 37.97213 -75.51335 45032 ft 461 kts 28°
2026-04-23 16:24 38.02540 -75.46676 45033 ft 463 kts 28°
2026-04-23 16:24 38.07879 -75.42167 45064 ft 464 kts 26°
2026-04-23 16:25 38.13311 -75.37750 45039 ft 461 kts 27°
2026-04-23 16:25 38.18669 -75.33371 45037 ft 456 kts 26°
2026-04-23 16:26 38.24050 -75.29023 45056 ft 456 kts 24°
2026-04-23 16:26 38.29823 -75.25855 45072 ft 451 kts 15°
2026-04-23 16:27 38.35675 -75.23019 45069 ft 454 kts 15°
2026-04-23 16:27 38.41587 -75.20159 45074 ft 453 kts 15°
2026-04-23 16:28 38.47473 -75.17306 45061 ft 451 kts 15°
2026-04-23 16:28 38.53333 -75.14459 45054 ft 450 kts 15°
2026-04-23 16:29 38.58194 -75.12096 45046 ft 450 kts 15°
2026-04-23 16:29 38.64862 -75.08228 45046 ft 460 kts 26°
2026-04-23 16:30 38.69919 -75.03030 45063 ft 470 kts 36°
2026-04-23 16:30 38.73974 -74.98362 45062 ft 471 kts 36°
2026-04-23 16:31 38.78889 -74.92745 45055 ft 471 kts 33°
2026-04-23 16:31 38.84002 -74.87463 45054 ft 471 kts 33°
2026-04-23 16:32 38.89087 -74.82168 45052 ft 469 kts 33°
2026-04-23 16:32 38.94125 -74.76935 45049 ft 467 kts 33°
2026-04-23 16:33 38.99169 -74.71667 45045 ft 465 kts 33°
2026-04-23 16:33 39.04166 -74.66409 45058 ft 467 kts 33°
2026-04-23 16:34 39.09222 -74.61094 45059 ft 471 kts 34°
2026-04-23 16:34 39.14300 -74.55737 45051 ft 472 kts 34°
2026-04-23 16:35 39.19310 -74.50287 45043 ft 470 kts 35°
2026-04-23 16:35 39.24288 -74.44847 45044 ft 466 kts 34°
2026-04-23 16:36 39.29233 -74.39458 45022 ft 465 kts 35°
2026-04-23 16:36 39.34139 -74.34041 45042 ft 469 kts 35°
2026-04-23 16:37 39.39133 -74.28548 45040 ft 472 kts 35°
2026-04-23 16:37 39.44131 -74.23019 45038 ft 470 kts 35°
2026-04-23 16:38 39.49078 -74.17534 45037 ft 465 kts 35°
2026-04-23 16:38 39.53739 -74.11733 45040 ft 474 kts 45°
2026-04-23 16:39 39.57962 -74.05105 45038 ft 477 kts 45°
2026-04-23 16:39 39.62220 -73.98445 45027 ft 481 kts 45°
2026-04-23 16:40 39.66482 -73.91736 45029 ft 480 kts 45°
2026-04-23 16:40 39.70699 -73.85101 45025 ft 477 kts 45°
2026-04-23 16:41 39.74915 -73.78445 45024 ft 475 kts 45°
2026-04-23 16:41 39.79120 -73.71799 45028 ft 477 kts 45°
2026-04-23 16:42 39.83340 -73.65110 45055 ft 478 kts 45°
2026-04-23 16:42 39.87577 -73.58382 45031 ft 482 kts 45°
2026-04-23 16:43 39.92058 -73.52009 45028 ft 476 kts 36°
2026-04-23 16:43 39.96965 -73.46226 45023 ft 474 kts 37°
2026-04-23 16:44 40.01824 -73.40461 45013 ft 470 kts 36°
2026-04-23 16:44 40.06657 -73.34738 45009 ft 470 kts 36°
2026-04-23 16:45 40.11481 -73.29000 45025 ft 473 kts 37°
2026-04-23 16:45 40.16359 -73.23190 45021 ft 474 kts 37°
2026-04-23 16:46 40.21216 -73.17386 45011 ft 471 kts 37°
2026-04-23 16:46 40.26053 -73.11600 45009 ft 469 kts 37°
2026-04-23 16:47 40.30870 -73.05829 45026 ft 468 kts 36°
2026-04-23 16:47 40.35654 -73.00089 45008 ft 469 kts 36°
2026-04-23 16:48 40.40471 -72.94292 45017 ft 469 kts 37°
2026-04-23 16:48 40.45262 -72.88520 45005 ft 469 kts 37°
2026-04-23 16:49 40.50081 -72.82700 44996 ft 470 kts 37°
2026-04-23 16:49 40.54827 -72.76744 45000 ft 472 kts 39°
2026-04-23 16:50 40.59457 -72.70692 45001 ft 470 kts 39°
2026-04-23 16:50 40.64113 -72.64606 45000 ft 471 kts 39°
2026-04-23 16:51 40.68762 -72.58533 44994 ft 470 kts 37°
2026-04-23 16:51 40.73747 -72.53081 44994 ft 468 kts 33°
2026-04-23 16:52 40.78772 -72.47595 44997 ft 468 kts 33°
2026-04-23 16:52 40.83556 -72.41632 45000 ft 474 kts 39°
2026-04-23 16:53 40.88261 -72.35521 44973 ft 475 kts 38°
2026-04-23 16:53 40.92384 -72.28537 44969 ft 489 kts 54°
2026-04-23 16:54 40.95369 -72.20405 44977 ft 496 kts 59°
2026-04-23 16:54 40.98299 -72.12149 44981 ft 494 kts 59°
2026-04-23 16:55 41.01198 -72.03909 44979 ft 492 kts 59°
2026-04-23 16:55 41.04285 -71.95874 44972 ft 483 kts 51°
2026-04-23 16:56 41.08029 -71.88563 44983 ft 483 kts 50°
2026-04-23 16:56 41.11795 -71.81134 44990 ft 487 kts 50°
2026-04-23 16:57 41.15598 -71.73662 44956 ft 487 kts 50°
2026-04-23 16:57 41.19351 -71.66314 44949 ft 480 kts 50°
2026-04-23 16:58 41.23091 -71.58973 44943 ft 481 kts 50°
2026-04-23 16:58 41.26854 -71.51563 44956 ft 485 kts 51°
2026-04-23 16:59 41.30629 -71.44109 44957 ft 485 kts 51°
2026-04-23 16:59 41.34387 -71.36674 44948 ft 482 kts 51°
2026-04-23 17:00 41.38090 -71.29333 44935 ft 480 kts 51°
2026-04-23 17:00 41.41822 -71.21932 44923 ft 482 kts 51°
2026-04-23 17:01 41.45565 -71.14482 44935 ft 485 kts 51°
2026-04-23 17:01 41.49285 -71.07058 44919 ft 481 kts 51°
2026-04-23 17:02 41.52983 -70.99666 44904 ft 477 kts 51°
2026-04-23 17:02 41.56786 -70.92392 44905 ft 478 kts 49°
2026-04-23 17:03 41.60718 -70.85162 44934 ft 482 kts 49°
2026-04-23 17:03 41.64641 -70.77887 44903 ft 480 kts 49°
2026-04-23 17:04 41.68544 -70.70667 44917 ft 476 kts 49°
2026-04-23 17:04 41.72388 -70.63523 44916 ft 476 kts 49°
2026-04-23 17:05 41.76275 -70.56288 44941 ft 480 kts 49°
2026-04-23 17:05 41.80192 -70.48978 44927 ft 484 kts 50°
2026-04-23 17:06 41.84084 -70.41692 44923 ft 482 kts 50°
2026-04-23 17:06 41.87979 -70.34388 44916 ft 479 kts 50°
2026-04-23 17:07 41.91828 -70.27152 44920 ft 478 kts 49°
2026-04-23 17:07 41.95705 -70.19853 44936 ft 482 kts 50°
2026-04-23 17:08 41.99615 -70.12461 44932 ft 487 kts 50°
2026-04-23 17:08 42.03523 -70.05060 44931 ft 487 kts 50°
2026-04-23 17:09 42.07425 -69.97655 44921 ft 484 kts 50°
2026-04-23 17:09 42.11301 -69.90278 44917 ft 482 kts 50°
2026-04-23 17:10 42.15186 -69.82871 44919 ft 486 kts 51°
2026-04-23 17:10 42.19100 -69.75385 44924 ft 491 kts 51°
2026-04-23 17:11 42.23007 -69.67891 44913 ft 488 kts 51°
2026-04-23 17:11 42.26893 -69.60424 44902 ft 484 kts 51°
2026-04-23 17:12 42.30769 -69.52961 44899 ft 486 kts 51°
2026-04-23 17:12 42.34672 -69.45421 44921 ft 490 kts 51°
2026-04-23 17:13 42.38584 -69.37845 44913 ft 490 kts 51°
2026-04-23 17:13 42.42443 -69.30355 44902 ft 486 kts 51°
2026-04-23 17:14 42.46302 -69.22847 44901 ft 485 kts 51°
2026-04-23 17:14 42.49522 -69.16568 44917 ft 488 kts 51°
2026-04-23 17:15 42.53401 -69.08984 44903 ft 491 kts 51°
2026-04-23 17:15 42.57291 -69.01358 44906 ft 491 kts 52°
2026-04-23 17:16 42.61171 -68.93736 44906 ft 490 kts 52°
2026-04-23 17:16 42.65037 -68.86118 44898 ft 489 kts 52°
2026-04-23 17:17 42.68895 -68.78499 44897 ft 489 kts 52°
2026-04-23 17:17 42.72748 -68.70871 44896 ft 489 kts 52°
2026-04-23 17:18 42.78501 -68.59444 44889 ft 489 kts 52°
2026-04-23 17:19 42.82341 -68.51792 44896 ft 489 kts 52°
2026-04-23 17:19 42.86182 -68.44118 44889 ft 490 kts 52°
2026-04-23 17:20 42.90032 -68.36407 44890 ft 491 kts 52°
2026-04-23 17:21 42.97709 -68.20971 44889 ft 493 kts 52°
2026-04-23 17:21 43.03475 -68.09323 44883 ft 491 kts 52°
2026-04-23 17:22 43.09185 -67.97742 44870 ft 488 kts 53°
2026-04-23 17:23 43.14865 -67.86180 44875 ft 491 kts 53°
2026-04-23 17:24 43.20594 -67.74471 44879 ft 494 kts 53°
2026-04-23 17:24 43.26307 -67.62747 44871 ft 490 kts 53°
2026-04-23 17:25 43.31942 -67.51139 44884 ft 489 kts 53°
2026-04-23 17:26 43.39501 -67.35494 44887 ft 493 kts 53°
2026-04-23 17:27 43.45178 -67.23688 44881 ft 492 kts 53°
2026-04-23 17:27 43.48918 -67.15887 44879 ft 490 kts 53°
2026-04-23 17:28 43.52666 -67.08047 44878 ft 488 kts 54°
2026-04-23 17:28 43.56386 -67.00211 44880 ft 487 kts 56°
2026-04-23 17:29 43.59606 -66.91945 44887 ft 490 kts 59°
2026-04-23 17:30 43.64405 -66.79530 44891 ft 491 kts 59°
2026-04-23 17:30 43.69215 -66.66993 44899 ft 493 kts 59°
2026-04-23 17:31 43.72422 -66.58597 44892 ft 494 kts 59°
2026-04-23 17:31 43.75608 -66.50237 44896 ft 488 kts 59°
2026-04-23 17:32 43.78764 -66.41936 44889 ft 488 kts 59°
2026-04-23 17:32 43.81932 -66.33575 44894 ft 491 kts 59°
2026-04-23 17:33 43.85098 -66.25192 44899 ft 494 kts 60°
2026-04-23 17:33 43.88265 -66.16781 44901 ft 490 kts 60°
2026-04-23 17:34 43.91413 -66.08399 44896 ft 489 kts 60°
2026-04-23 17:35 43.96109 -65.95847 44902 ft 490 kts 60°
2026-04-23 17:35 44.00823 -65.83188 44904 ft 491 kts 60°
2026-04-23 17:36 44.03939 -65.74789 44900 ft 491 kts 60°
2026-04-23 17:36 44.07068 -65.66328 44898 ft 492 kts 60°
2026-04-23 17:37 44.10193 -65.57854 44902 ft 492 kts 60°
2026-04-23 17:38 44.14881 -65.45091 44896 ft 494 kts 61°
2026-04-23 17:38 44.18002 -65.36561 44898 ft 495 kts 61°
2026-04-23 17:39 44.21124 -65.28002 44905 ft 496 kts 61°
2026-04-23 17:39 44.24226 -65.19471 44899 ft 495 kts 61°
2026-04-23 17:40 44.27330 -65.10908 44893 ft 493 kts 61°
2026-04-23 17:40 44.30416 -65.02370 44893 ft 491 kts 61°
2026-04-23 17:41 44.33480 -64.93865 44893 ft 490 kts 61°
2026-04-23 17:41 44.38091 -64.81020 44902 ft 497 kts 62°
2026-04-23 17:42 44.42709 -64.68089 44891 ft 492 kts 62°
2026-04-23 17:43 44.45753 -64.59532 44887 ft 490 kts 62°
2026-04-23 17:43 44.48774 -64.51016 44890 ft 493 kts 62°
2026-04-23 17:44 44.51826 -64.42381 44887 ft 495 kts 62°
2026-04-23 17:44 44.56405 -64.29379 44885 ft 494 kts 62°
2026-04-23 17:45 44.60939 -64.16440 44885 ft 490 kts 62°
2026-04-23 17:46 44.65447 -64.03515 44890 ft 493 kts 63°
2026-04-23 17:46 44.68419 -63.94880 44895 ft 496 kts 63°
2026-04-23 17:47 44.71333 -63.86066 44893 ft 496 kts 63°
2026-04-23 17:48 44.75729 -63.72972 44879 ft 490 kts 64°
2026-04-23 17:48 44.78616 -63.64280 44872 ft 492 kts 63°
2026-04-23 17:49 44.81519 -63.55547 44881 ft 496 kts 64°
2026-04-23 17:49 44.84435 -63.46714 44881 ft 496 kts 64°
2026-04-23 17:50 44.87340 -63.37909 44879 ft 494 kts 64°
2026-04-23 17:50 44.91642 -63.24794 44879 ft 493 kts 64°
2026-04-23 17:51 44.94518 -63.15996 44881 ft 492 kts 64°
2026-04-23 17:52 44.98801 -63.02832 44875 ft 491 kts 65°
2026-04-23 17:52 45.03086 -62.89599 44878 ft 494 kts 65°
2026-04-23 17:53 45.07345 -62.76385 44886 ft 494 kts 64°
2026-04-23 17:54 45.10189 -62.67513 44876 ft 495 kts 65°
2026-04-23 17:54 45.14449 -62.54179 44876 ft 495 kts 65°
2026-04-23 17:55 45.18680 -62.40870 44877 ft 495 kts 65°
2026-04-23 17:56 45.21506 -62.31934 44876 ft 495 kts 65°
2026-04-23 17:56 45.25700 -62.18626 44874 ft 493 kts 65°
2026-04-23 17:57 45.28492 -62.09723 44867 ft 492 kts 65°
2026-04-23 17:58 45.32188 -61.97897 44868 ft 491 kts 65°
2026-04-23 17:58 45.35404 -61.87557 44868 ft 491 kts 66°
2026-04-23 17:59 45.37697 -61.80165 44870 ft 491 kts 66°
2026-04-23 17:59 45.40451 -61.71248 44867 ft 492 kts 66°
2026-04-23 18:00 45.43203 -61.62317 44871 ft 493 kts 66°
2026-04-23 18:00 45.45949 -61.53365 44866 ft 492 kts 66°
2026-04-23 18:01 45.48668 -61.44478 44866 ft 491 kts 66°
2026-04-23 18:01 45.51394 -61.35530 44863 ft 490 kts 66°
2026-04-23 18:02 45.54113 -61.26577 44862 ft 491 kts 66°
2026-04-23 18:02 45.56821 -61.17626 44866 ft 491 kts 66°
2026-04-23 18:03 45.59509 -61.08713 44865 ft 491 kts 66°
2026-04-23 18:03 45.62201 -60.99751 44860 ft 490 kts 66°
2026-04-23 18:04 45.64885 -60.90787 44856 ft 490 kts 66°
2026-04-23 18:04 45.67541 -60.81884 44855 ft 489 kts 67°
2026-04-23 18:05 45.70206 -60.72919 44857 ft 489 kts 67°
2026-04-23 18:05 45.72857 -60.63968 44856 ft 489 kts 67°
2026-04-23 18:06 45.75509 -60.54982 44857 ft 489 kts 67°
2026-04-23 18:06 45.78141 -60.46035 44856 ft 490 kts 68°
2026-04-23 18:07 45.80779 -60.37028 44855 ft 489 kts 68°
2026-04-23 18:07 45.83410 -60.28018 44855 ft 489 kts 68°
2026-04-23 18:08 45.86011 -60.19078 44850 ft 488 kts 68°
2026-04-23 18:08 45.88620 -60.10074 44854 ft 488 kts 68°
2026-04-23 18:09 45.91223 -60.01060 44849 ft 488 kts 68°
2026-04-23 18:09 45.93815 -59.92053 44852 ft 487 kts 68°
2026-04-23 18:10 45.96379 -59.83045 44865 ft 484 kts 69°
2026-04-23 18:10 45.97501 -59.78599 44850 ft 471 kts 72°
2026-04-23 18:10 45.98538 -59.74211 44852 ft 457 kts 71°
2026-04-23 18:11 46.00729 -59.65749 44860 ft 452 kts 70°
2026-04-23 18:11 46.02892 -59.57154 44880 ft 461 kts 71°
2026-04-23 18:12 46.05265 -59.48469 44881 ft 470 kts 68°
2026-04-23 18:12 46.07809 -59.39694 44880 ft 479 kts 69°
2026-04-23 18:13 46.10288 -59.30761 44881 ft 487 kts 69°
2026-04-23 18:13 46.12879 -59.21667 44885 ft 490 kts 69°
2026-04-23 18:14 46.15404 -59.12579 44878 ft 485 kts 69°
2026-04-23 18:14 46.17932 -59.03578 44883 ft 484 kts 69°
2026-04-23 18:15 46.20431 -58.94560 44888 ft 489 kts 69°
2026-04-23 18:15 46.22966 -58.85431 44882 ft 489 kts 70°
2026-04-23 18:16 46.25470 -58.76360 44883 ft 483 kts 69°
2026-04-23 18:16 46.27949 -58.67342 44878 ft 482 kts 70°
2026-04-23 18:17 46.31678 -58.53729 44884 ft 488 kts 70°
2026-04-23 18:17 46.34150 -58.44645 44893 ft 487 kts 70°
2026-04-23 18:18 46.36619 -58.35562 44880 ft 483 kts 70°
2026-04-23 18:18 46.39064 -58.26511 44875 ft 483 kts 70°
2026-04-23 18:19 46.41515 -58.17414 44881 ft 485 kts 70°
2026-04-23 18:19 46.43972 -58.08257 44885 ft 488 kts 70°
2026-04-23 18:20 46.46409 -57.99139 44887 ft 487 kts 70°
2026-04-23 18:20 46.48845 -57.89998 44886 ft 485 kts 70°
2026-04-23 18:21 46.51261 -57.80878 44884 ft 483 kts 70°
2026-04-23 18:21 46.53669 -57.71772 44884 ft 482 kts 70°
2026-04-23 18:22 46.56072 -57.62637 44877 ft 485 kts 71°
2026-04-23 18:22 46.58472 -57.53475 44884 ft 488 kts 70°
2026-04-23 18:23 46.62083 -57.39640 44893 ft 485 kts 71°
2026-04-23 18:24 46.65624 -57.25983 44879 ft 482 kts 71°
2026-04-23 18:25 46.69178 -57.12194 44884 ft 487 kts 71°
2026-04-23 18:25 46.71550 -57.02948 44887 ft 486 kts 71°
2026-04-23 18:26 46.73905 -56.93730 44868 ft 483 kts 71°
2026-04-23 18:26 46.76237 -56.84559 44865 ft 482 kts 72°
2026-04-23 18:27 46.78574 -56.75336 44874 ft 485 kts 72°
2026-04-23 18:27 46.80901 -56.66123 44879 ft 487 kts 71°
2026-04-23 18:28 46.83236 -56.56829 44871 ft 486 kts 72°
2026-04-23 18:28 46.85555 -56.47573 44865 ft 483 kts 72°
2026-04-23 18:29 46.87849 -56.38365 44852 ft 481 kts 72°
2026-04-23 18:29 46.90122 -56.29215 44864 ft 480 kts 72°
2026-04-23 18:30 46.92397 -56.20015 44854 ft 481 kts 72°
2026-04-23 18:30 46.94673 -56.10769 44860 ft 483 kts 72°
2026-04-23 18:31 46.96930 -56.01574 44865 ft 483 kts 73°
2026-04-23 18:31 46.99187 -55.92324 44864 ft 481 kts 72°
2026-04-23 18:32 47.01433 -55.83108 44869 ft 479 kts 73°
2026-04-23 18:32 47.03662 -55.73895 44860 ft 479 kts 72°
2026-04-23 18:32 47.04766 -55.69321 44465 ft 483 kts 72°
2026-04-23 18:33 47.05881 -55.64694 43837 ft 478 kts 73°
2026-04-23 18:33 47.06981 -55.60139 43202 ft 470 kts 73°
2026-04-23 18:33 47.08061 -55.55647 42590 ft 461 kts 73°
2026-04-23 18:33 47.09116 -55.51226 41988 ft 453 kts 73°
2026-04-23 18:34 47.10140 -55.46929 41399 ft 449 kts 73°
2026-04-23 18:34 47.11172 -55.42609 40789 ft 449 kts 73°
2026-04-23 18:34 47.12210 -55.38255 40202 ft 456 kts 73°
2026-04-23 18:34 47.13263 -55.33814 39599 ft 463 kts 73°
2026-04-23 18:35 47.14328 -55.29323 39002 ft 467 kts 73°
2026-04-23 18:35 47.15396 -55.24823 38352 ft 466 kts 73°
2026-04-23 18:35 47.16459 -55.20326 37705 ft 462 kts 73°
2026-04-23 18:35 47.17504 -55.15891 37101 ft 457 kts 73°
2026-04-23 18:36 47.18535 -55.11504 36493 ft 455 kts 73°
2026-04-23 18:36 47.19570 -55.07094 35908 ft 453 kts 74°
2026-04-23 18:36 47.20598 -55.02705 35311 ft 451 kts 74°
2026-04-23 18:36 47.21602 -54.98415 34727 ft 451 kts 74°
2026-04-23 18:37 47.22625 -54.94030 34126 ft 450 kts 75°
2026-04-23 18:37 47.23638 -54.89676 33492 ft 450 kts 75°
2026-04-23 18:37 47.24650 -54.85322 32895 ft 449 kts 75°
2026-04-23 18:37 47.25659 -54.80973 32302 ft 451 kts 75°
2026-04-23 18:38 47.26672 -54.76592 31701 ft 453 kts 75°
2026-04-23 18:38 47.27692 -54.72183 31105 ft 454 kts 75°
2026-04-23 18:38 47.28706 -54.67788 30484 ft 454 kts 75°
2026-04-23 18:38 47.29717 -54.63386 29896 ft 449 kts 75°
2026-04-23 18:39 47.30711 -54.59063 29263 ft 443 kts 75°
2026-04-23 18:39 47.31682 -54.54825 28685 ft 440 kts 75°
2026-04-23 18:39 47.32657 -54.50557 28110 ft 440 kts 75°
2026-04-23 18:39 47.33632 -54.46280 27530 ft 439 kts 75°
2026-04-23 18:40 47.34605 -54.42014 26955 ft 436 kts 75°
2026-04-23 18:40 47.35568 -54.37780 26374 ft 433 kts 74°
2026-04-23 18:40 47.36520 -54.33583 25807 ft 431 kts 74°
2026-04-23 18:40 47.37465 -54.29405 25243 ft 429 kts 74°
2026-04-23 18:41 47.38408 -54.25230 24677 ft 428 kts 74°
2026-04-23 18:41 47.39344 -54.21085 24111 ft 421 kts 75°
2026-04-23 18:41 47.40260 -54.17017 23559 ft 414 kts 74°
2026-04-23 18:41 47.41160 -54.12992 22966 ft 413 kts 75°
2026-04-23 18:42 47.41804 -54.08874 22432 ft 409 kts 84°
2026-04-23 18:42 47.42229 -54.04726 21885 ft 409 kts 83°
2026-04-23 18:42 47.42681 -54.00569 21344 ft 409 kts 83°
2026-04-23 18:42 47.43134 -53.96483 20813 ft 406 kts 83°
2026-04-23 18:43 47.43572 -53.92377 20271 ft 405 kts 83°
2026-04-23 18:43 47.44002 -53.88261 19747 ft 403 kts 83°
2026-04-23 18:43 47.44437 -53.84163 19207 ft 403 kts 83°
2026-04-23 18:43 47.44871 -53.80086 18682 ft 400 kts 83°
2026-04-23 18:44 47.45156 -53.77392 18333 ft 399 kts 83°
2026-04-23 18:44 47.45581 -53.73344 17777 ft 397 kts 83°
2026-04-23 18:44 47.46135 -53.68051 17267 ft 392 kts 83°
2026-04-23 18:44 47.46418 -53.65333 16925 ft 396 kts 83°
2026-04-23 18:45 47.46829 -53.61378 16412 ft 391 kts 83°
2026-04-23 18:45 47.47241 -53.57416 15895 ft 389 kts 82°
2026-04-23 18:45 47.47648 -53.53471 15396 ft 386 kts 82°
2026-04-23 18:45 47.48051 -53.49555 14878 ft 385 kts 82°
2026-04-23 18:46 47.48452 -53.45648 14373 ft 384 kts 82°
2026-04-23 18:46 47.48851 -53.41748 13866 ft 381 kts 82°
2026-04-23 18:46 47.49245 -53.37886 13329 ft 373 kts 82°
2026-04-23 18:46 47.49616 -53.34232 12858 ft 353 kts 82°
2026-04-23 18:47 47.49970 -53.30742 12406 ft 335 kts 82°
2026-04-23 18:47 47.50307 -53.27397 11974 ft 321 kts 82°
2026-04-23 18:47 47.50630 -53.24187 11560 ft 310 kts 82°
2026-04-23 18:47 47.50941 -53.21085 11153 ft 296 kts 82°
2026-04-23 18:48 47.51233 -53.18175 10778 ft 278 kts 83°
2026-04-23 18:48 47.51506 -53.15446 10422 ft 264 kts 83°
2026-04-23 18:48 47.51767 -53.12821 10082 ft 253 kts 83°
2026-04-23 18:48 47.52018 -53.10281 9756 ft 245 kts 83°
2026-04-23 18:49 47.52263 -53.07809 9415 ft 240 kts 83°
2026-04-23 18:49 47.52505 -53.05358 9093 ft 241 kts 83°
2026-04-23 18:49 47.52743 -53.02888 8779 ft 243 kts 85°
2026-04-23 18:49 47.52865 -53.00392 8455 ft 242 kts 87°
2026-04-23 18:50 47.52944 -52.98759 8240 ft 240 kts 87°
2026-04-23 18:50 47.53115 -52.95471 7816 ft 240 kts 86°
2026-04-23 18:50 47.53239 -52.93008 7499 ft 239 kts 86°
2026-04-23 18:50 47.53357 -52.90595 7188 ft 236 kts 86°
2026-04-23 18:51 47.53476 -52.88182 6876 ft 234 kts 86°
2026-04-23 18:51 47.53594 -52.85776 6565 ft 234 kts 86°
2026-04-23 18:51 47.53711 -52.83377 6266 ft 233 kts 85°
2026-04-23 18:51 47.53827 -52.80987 5931 ft 231 kts 85°
2026-04-23 18:52 47.53942 -52.78617 5614 ft 229 kts 85°
2026-04-23 18:52 47.54057 -52.76250 5322 ft 230 kts 85°
2026-04-23 18:52 47.54170 -52.73885 5022 ft 229 kts 85°
2026-04-23 18:52 47.54280 -52.71581 5000 ft 223 kts 85°
2026-04-23 18:53 47.54389 -52.69293 4998 ft 228 kts 85°
2026-04-23 18:53 47.54502 -52.66946 5005 ft 229 kts 85°
2026-04-23 18:53 47.54611 -52.64592 5007 ft 228 kts 85°
2026-04-23 18:53 47.54721 -52.62247 4962 ft 231 kts 85°
2026-04-23 18:54 47.54834 -52.59841 4659 ft 235 kts 85°
2026-04-23 18:54 47.54946 -52.57451 4240 ft 231 kts 86°
2026-04-23 18:54 47.55055 -52.55092 3842 ft 226 kts 86°
2026-04-23 18:54 47.55161 -52.52791 3463 ft 222 kts 86°
2026-04-23 18:55 47.55265 -52.50527 3086 ft 218 kts 86°
2026-04-23 18:55 47.55364 -52.48370 3010 ft 209 kts 86°
2026-04-23 18:55 47.55470 -52.46184 3008 ft 216 kts 82°
2026-04-23 18:55 47.56137 -52.44239 3009 ft 214 kts 38°
2026-04-23 18:56 47.56997 -52.43589 3008 ft 208 kts
2026-04-23 18:56 47.58717 -52.44339 3016 ft 194 kts 315°
2026-04-23 18:56 47.59716 -52.45717 3021 ft 194 kts 317°
2026-04-23 18:56 47.60813 -52.46864 3022 ft 196 kts 323°
2026-04-23 18:57 47.61951 -52.47970 3017 ft 195 kts 317°
2026-04-23 18:57 47.62818 -52.49466 3047 ft 185 kts 300°
2026-04-23 18:57 47.63321 -52.51212 3015 ft 187 kts 283°
2026-04-23 18:57 47.63463 -52.53137 3009 ft 188 kts 270°
2026-04-23 18:58 47.63414 -52.55070 3007 ft 188 kts 267°
2026-04-23 18:58 47.63333 -52.57031 2829 ft 192 kts 266°
2026-04-23 18:58 47.63231 -52.58940 2563 ft 176 kts 266°
2026-04-23 18:58 47.63157 -52.60668 2309 ft 160 kts 266°
2026-04-23 18:59 47.63086 -52.62133 2129 ft 143 kts 266°
2026-04-23 18:59 47.63014 -52.63656 1925 ft 141 kts 266°
2026-04-23 18:59 47.62946 -52.64996 1718 ft 121 kts 266°
2026-04-23 18:59 47.62891 -52.66162 1552 ft 107 kts 265°
2026-04-23 19:00 47.62841 -52.67239 1385 ft 103 kts 265°
2026-04-23 19:00 47.62785 -52.68308 1253 ft 105 kts 265°
2026-04-23 19:00 47.62735 -52.69386 1095 ft 104 kts 266°
2026-04-23 19:00 47.62684 -52.70446 940 ft 104 kts 266°
2026-04-23 19:01 47.62632 -52.71506 789 ft 103 kts 266°
2026-04-23 19:01 47.62574 -52.72553 644 ft 103 kts 266°
2026-04-23 19:01 47.62532 -52.73604 507 ft 101 kts 267°
2026-04-23 19:01 47.62490 -52.74591 445 ft 83 kts 262°
2026-04-23 19:02 47.62466 -52.75030 439 ft 41 kts 266°
2026-04-23 19:02 47.62466 -52.75286 441 ft 10 kts 219°
2026-04-23 19:02 47.62451 -52.75178 441 ft 18 kts 82°
2026-04-23 19:02 47.62420 -52.74966 428 ft 24 kts 139°
2026-04-23 19:03 47.62285 -52.74794 439 ft 27 kts 139°
2026-04-23 19:03 47.62132 -52.74601 446 ft 30 kts 140°
2026-04-23 19:03 47.61963 -52.74381 434 ft 31 kts 139°
2026-04-23 19:03 47.61801 -52.74172 425 ft 31 kts 138°
2026-04-23 19:04 47.61667 -52.73997 420 ft 25 kts 137°
2026-04-23 19:04 47.61531 -52.73844 416 ft 20 kts 161°
2026-04-23 19:04 47.61381 -52.73832 422 ft 20 kts 177°
2026-04-23 19:04 47.61284 -52.73826 438 ft 12 kts 190°
2026-04-23 19:05 47.61271 -52.73923 433 ft 10 kts 296°
2026-04-23 19:05 47.61227 -52.73966 436 ft 11 kts 175°
2026-04-23 19:05 47.61133 -52.73956 443 ft 16 kts 176°
2026-04-23 19:05 47.61051 -52.73937 436 ft 9 kts 168°
2026-04-23 19:06 47.61034 -52.73961 443 ft 4 kts 270°
2026-04-23 19:06 47.61034 -52.73963 443 ft 0 kts 267°
2026-04-23 19:15 47.61034 -52.73962 443 ft 0 kts 267°